Regional Weather Roundup
Issued by NWS Newport/Morehead, NC

Current Version | Previous Version | Graphics & Text | Print | Product List | Glossary Off
Versions: 1 2 3 4 5 6 7 8 9 10 11 12 13 14 15 16 17 18 19 20 21 22 23 24 25 26 27 28 29 30 31 32 33 34 35 36 37 38 39 40 41 42 43 44 45 46 47 48 49 50

000
ASUS42 KMHX 030812
RWRMHX
WEATHER ROUNDUP FOR EASTERN NORTH CAROLINA
NATIONAL WEATHER SERVICE NEWPORT/MOREHEAD CITY NC
400 AM EDT SUN MAY 03 2015

NOTE: "FAIR" INDICATES FEW OR NO CLOUDS BELOW 12,000 FEET
WITH NO SIGNIFICANT WEATHER AND/OR OBSTRUCTIONS TO VISIBILITY

NCZ015>017-031-032-045>047-102-103-030900-
NORTH COAST

CITY           SKY/WX    TMP DP  RH WIND       PRES   REMARKS
EDENTON        CLEAR     56  52  86 W8        30.10R
ELIZABETH CITY CLEAR     51  48  89 SW5       30.09R
KITTY HAWK     SUNNY     52  49  87 SW3       30.08R
MANTEO         CLEAR     54  48  80 W5        30.10R

$$

NCZ045>047-081-094-103-104-030900-
CENTRAL COAST

CITY           SKY/WX    TMP DP  RH WIND       PRES   REMARKS
FRISCO         CLEAR     48  48 100 W5        30.09S
SWANQUARTER      N/A     57 N/A N/A W3        30.06S

$$

NCZ095-097-098-100-101-030900-
SOUTHERN COAST

CITY           SKY/WX    TMP DP  RH WIND       PRES   REMARKS
BEAUFORT       CLEAR     50  48  93 CALM      30.11S
CEDAR ISLAND     N/A     54 N/A N/A SW2       30.15R
JACKSONVILLE   FOG       50  49  96 CALM      30.11R VSB 1
PINEY ISLAND   SUNNY    N/A N/A N/A W5        30.10S
WILMINGTON     CLEAR     52  50  93 CALM      30.11S


$$

NCZ011>013-027>030-043-044-078>080-089-090>093-098-030900-
COASTAL PLAIN

CITY           SKY/WX    TMP DP  RH WIND       PRES   REMARKS
AHOSKIE        CLEAR     47  46  97 CALM      30.10S
CLINTON        CLEAR     50  50 100 CALM      30.12R
ELIZABETHTOWN  CLEAR     53  52  96 CALM      30.11S
GOLDSBORO      CLEAR     49  49 100 CALM      30.09R
GREENVILLE     CLEAR     52  52 100 CALM      30.12R
HAVELOCK       CLEAR     49  46  90 CALM      30.12R
KENANSVILLE    CLEAR     46  45  98 CALM      30.12S
KINSTON        CLEAR     50  50  99 S3        30.12R
NEW BERN       PTCLDY    47  44  90 CALM      30.12S FOG
RICHLANDS      CLOUDY    46  43  87 CALM      30.12S VSB 3/4
ROCKY MOUNT    CLEAR     48  48 100 CALM      30.10S
WASHINGTON     CLEAR     50  49  94 CALM      30.11S
WHITEVILLE     CLEAR     51  50  95 CALM      30.11S

$$

AMZ130-135-150-152-154-156-158-170-250-252-270-ANZ085-086-088-633-658-670-030900-
MARINE OBSERVATIONS

STATION/POSITION TIME  TEMP    WIND        PRES    WAVE   SWELL
                       AIR SEA DIR/SP/G            HT/PER HT/PER
                 (UTC) (F)     (DEG/KT/KT) (MB)    (FT/S) (FT/S)
CHESAPEAKE LIGHT 0800   54     230/ 13/ 13 1018.8
64 E VA BEACH    0750   53 54  280/  4/  6 1018.3    7/11   7/11
DUCK             0700   55 53  230/  6/  7 1017.6
2 E DUCK         0711      55                N/A     5/11   3/11
OREGON INLET     0700   54 57  250/  5/  7 1018.7
13E OREGON INLT  0800      50                N/A     7/12   5/12
HATTERAS CG      0700   58 61  270/  7/  8 1018.5
DIAMOND BUOY     0650   54     310/  6/  6 1019.0    5/11   5/11
CAPE LOOKOUT     0800   59     240/  5/  5 1019.1
BEAUFORT LAB     0700   58 62  260/  2/  3 1018.5
27 SE WRIGHTSVLE 0700   64 71  320/  4/  6   N/A
5 SE WRIGHTSVLE  NOT AVBL
225 S CAPE HAT   0750   65 69  350/ 16/ 19 1018.4    8/11   7/11
41 SE CHARLESTON 0750   70 71  220/  6/  8 1019.1    2/11   2/11

$$


USA.gov is the U.S. government's official web portal to all federal, state and local government web resources and services.